Location: Poughquag
(41.6090°N, 73.6820°W)
Time: 09:15:56
(UTC-05:00)

Vanguard 1 - Pass Details

Date: 06 December 2023
Orbit: 653 x 3826 km, 34.3° (Epoch: 25 February)

Event Time Altitude Azimuth Distance (km) Brightness Sun altitude
Rises 21:12:32 0° 274° (W) 6,714 14.9 -52.8°
Reaches altitude 10° 21:16:29 10° 271° (W) 6,015 14.4 -53.5°
Enters shadow 21:33:47 60° 225° (SW) 4,105 12.9 -56.5°
Maximum altitude 21:36:55 64° 197° (SSW) 4,076 - -57.0°
Drops below altitude 10° 21:58:53 10° 123° (ESE) 6,386 - -60.6°
Sets 22:03:16 0° 120° (ESE) 7,126 - -61.3°
